Location: Castle
(40.7167°S, 175.9500°E)
Time: 03:55:19
(UTC+00:00)

ARIANE 5 R/B - Pass Details

Date: 04 August 2024
Orbit: 748 x 792 km, 98.8° (Epoch: 07 September)

Event Time Altitude Azimuth Distance (km) Brightness Sun altitude
Rises 17:52:43 0° 335° (NNW) 3,275 5.6 -16.5°
Reaches altitude 10° 17:55:42 10° 317° (NW) 2,351 4.7 -15.9°
Enters shadow 17:57:20 16° 301° (WNW) 1,987 4.2 -15.6°
